Torna al catalogo

STARLINK-5120

AttivoComunicazioniVLEO
NORAD 53982·PAYLOAD·🇺🇸 United States

Lanciato Oct 5, 2022 da Vandenberg Space Force Base

Loading…

Prossimi Passaggi (prossime 24 ore)

TLE

AggiornatoSource: CelesTrak SupGP

Epoca: Sep 15, 2026, 01:48 UTC

1 53982C 22125U   26258.07548611  .00708650  00000+0  31640-1 0  2582
2 53982  53.1594  82.9323 0001153  82.1123 100.4139 15.20490324    19

Traccia STARLINK-5120 in tempo reale con AllMySat

Download on the App Store